This is the latest recevied weather packets stored in our database for station/object W0AKO. If no packets are shown the sender has not sent any weather packets the latest 10 day(s).
| Time | Temp. | Humidity | Pressure | Rain* | Wind** | Luminosity | Snow |
|---|---|---|---|---|---|---|---|
| 1777524864 | 18.89° C | 10% | 1016.4 hPa | 0 mm | - | 0 W/m² | - |
| 1777524562 | 18.33° C | 10% | 1016.5 hPa | 0 mm | - | 0 W/m² | - |
| 1777524259 | 18.33° C | 10% | 1016.5 hPa | 0 mm | - | 0 W/m² | - |
| 1777523955 | 18.89° C | 10% | 1016.6 hPa | 0 mm | - | 0 W/m² | - |
| 1777523651 | 18.89° C | 10% | 1016.4 hPa | 0 mm | - | 0 W/m² | - |
| 1777523347 | 19.44° C | 10% | 1016.4 hPa | 0 mm | - | 0 W/m² | - |
| 1777523044 | 20° C | 10% | 1016.2 hPa | 0 mm | - | 0 W/m² | - |
| 1777522741 | 20.56° C | 10% | 1016.2 hPa | 0 mm | - | 0 W/m² | - |
| 1777522437 | 20° C | 10% | 1016.4 hPa | 0 mm | - | 0 W/m² | - |
| 1777522135 | 20.56° C | 10% | 1016 hPa | 0 mm | - | 0 W/m² | - |
| 1777521831 | 20.56° C | 10% | 1016.3 hPa | 0 mm | - | 0 W/m² | - |
| 1777521527 | 21.11° C | 10% | 1015.9 hPa | 0 mm | - | 0 W/m² | - |
| 1777521225 | 21.11° C | 10% | 1015.9 hPa | 0 mm | - | 0 W/m² | - |
| 1777520922 | 20.56° C | 10% | 1015.9 hPa | 0 mm | - | 0 W/m² | - |
| 1777520619 | 21.11° C | 10% | 1015.7 hPa | 0 mm | - | 0 W/m² | - |
| 1777520315 | 21.11° C | 10% | 1015.7 hPa | 0 mm | - | 0 W/m² | - |
| 1777520013 | 21.11° C | 10% | 1015.7 hPa | 0 mm | - | 0 W/m² | - |
| 1777519710 | 21.11° C | 10% | 1015.4 hPa | 0 mm | - | 0 W/m² | - |
| 1777519406 | 21.67° C | 10% | 1015.4 hPa | 0 mm | - | 0 W/m² | - |
| 1777519103 | 21.67° C | 10% | 1015.2 hPa | 0 mm | - | 0 W/m² | - |
| 1777518799 | 22.22° C | 10% | 1015.2 hPa | 0 mm | - | 0 W/m² | - |
| 1777518495 | 22.22° C | 10% | 1015.4 hPa | 0 mm | - | 0 W/m² | - |
| 1777518191 | 22.22° C | 10% | 1015.2 hPa | 0 mm | - | 0 W/m² | - |
| 1777517888 | 22.22° C | 10% | 1015.1 hPa | 0 mm | - | 0 W/m² | - |
| 1777517583 | 22.78° C | 10% | 1015.1 hPa | 0 mm | - | 0 W/m² | - |
* Rain latest hour (hover to see other rain measurements)
** Current wind speed in m/s (hover to see current wind gust speed)